| time (UTC) | temp F | wind direction | speed knots | gust knots | rain 1hr in | rain 24hr in | rain mn in | humidity % | barometer mb |
| 20260507002254 | 63 | 195 | 3.5 | 4.3 | 0.00 | 0.00 | 0.00 | 84 | 1012.1 |
| 20260507001751 | 63 | 214 | 1.7 | 2.6 | 0.00 | 0.00 | 0.00 | 84 | 1012.0 |
| 20260507001249 | 64 | 204 | 0.9 | 1.7 | 0.00 | 0.00 | 0.00 | 83 | 1012.0 |
| 20260507000745 | 64 | 184 | 3.5 | 5.2 | 0.00 | 0.00 | 0.00 | 84 | 1012.1 |
| 20260507000241 | 64 | 221 | 1.7 | 2.6 | 0.00 | 0.00 | 0.00 | 84 | 1011.8 |
| 20260506235738 | 64 | 200 | 3.5 | 7.0 | 0.00 | 0.00 | 0.00 | 84 | 1011.8 |
| 20260506235233 | 64 | 184 | 0.9 | 1.7 | 0.00 | 0.00 | 0.00 | 83 | 1011.6 |
| 20260506234730 | 64 | 200 | 1.7 | 1.7 | 0.00 | 0.00 | 0.00 | 84 | 1011.6 |
| 20260506234227 | 64 | 221 | 5.2 | 6.1 | 0.00 | 0.00 | 0.00 | 84 | 1011.5 |
| 20260506233725 | 64 | 198 | 1.7 | 2.6 | 0.00 | 0.00 | 0.00 | 84 | 1011.4 |
| 20260506233221 | 65 | 202 | 4.3 | 6.1 | 0.00 | 0.00 | 0.00 | 83 | 1011.4 |
| 20260506232718 | 65 | 196 | 7.0 | 8.7 | 0.00 | 0.00 | 0.00 | 82 | 1010.9 |
| 20260506232213 | 65 | 208 | 4.3 | 6.1 | 0.00 | 0.00 | 0.00 | 82 | 1011.2 |
| 20260506231710 | 65 | 172 | 2.6 | 5.2 | 0.00 | 0.00 | 0.00 | 82 | 1011.2 |
| 20260506231209 | 65 | 169 | 4.3 | 6.1 | 0.00 | 0.00 | 0.00 | 82 | 1011.3 |
| 20260506230705 | 65 | 165 | 5.2 | 6.1 | 0.00 | 0.00 | 0.00 | 82 | 1010.9 |
| 20260506230202 | 66 | 198 | 5.2 | 7.8 | 0.00 | 0.00 | 0.00 | 81 | 1010.9 |
| 20260506225658 | 66 | 231 | 5.2 | 7.0 | 0.00 | 0.00 | 0.00 | 80 | 1011.1 |
| 20260506225155 | 66 | 205 | 5.2 | 7.0 | 0.00 | 0.00 | 0.00 | 81 | 1010.8 |
| 20260506224652 | 66 | 140 | 2.6 | 2.6 | 0.00 | 0.00 | 0.00 | 81 | 1011.1 |
| 20260506224149 | 67 | 186 | 1.7 | 2.6 | 0.00 | 0.00 | 0.00 | 80 | 1011.2 |
| 20260506223645 | 67 | 149 | 1.7 | 2.6 | 0.00 | 0.00 | 0.00 | 80 | 1011.1 |
| 20260506223141 | 66 | 200 | 0.0 | 0.9 | 0.00 | 0.00 | 0.00 | 81 | 1010.9 |
| 20260506222638 | 67 | 167 | 6.1 | 8.7 | 0.00 | 0.00 | 0.00 | 80 | 1011.2 |
| 20260506222134 | 66 | 135 | 2.6 | 2.6 | 0.00 | 0.00 | 0.00 | 81 | 1010.6 |
| 20260506221632 | 66 | 201 | 3.5 | 5.2 | 0.00 | 0.00 | 0.00 | 81 | 1010.9 |
| 20260506221130 | 67 | 195 | 6.1 | 7.8 | 0.00 | 0.00 | 0.00 | 80 | 1010.8 |
| 20260506220626 | 68 | 167 | 6.1 | 9.6 | 0.00 | 0.00 | 0.00 | 79 | 1010.8 |
| 20260506220121 | 68 | 179 | 4.3 | 5.2 | 0.00 | 0.00 | 0.00 | 79 | 1010.5 |
| 20260506215618 | 69 | 194 | 3.5 | 5.2 | 0.00 | 0.00 | 0.00 | 77 | 1010.9 |
| 20260506215113 | 71 | 234 | 6.1 | 12.2 | 0.00 | 0.00 | 0.00 | 75 | 1010.4 |
| 20260506214611 | 71 | 192 | 4.3 | 7.0 | 0.00 | 0.00 | 0.00 | 76 | 1010.6 |
| 20260506214108 | 70 | 146 | 3.5 | 5.2 | 0.00 | 0.00 | 0.00 | 78 | 1010.7 |
| 20260506213606 | 72 | 234 | 4.3 | 6.1 | 0.00 | 0.00 | 0.00 | 76 | 1010.5 |
| 20260506213103 | 73 | 195 | 4.3 | 7.8 | 0.00 | 0.00 | 0.00 | 75 | 1010.5 |
| 20260506212600 | 73 | 180 | 1.7 | 5.2 | 0.00 | 0.00 | 0.00 | 74 | 1010.5 |
| 20260506212055 | 73 | 198 | 4.3 | 6.1 | 0.00 | 0.00 | 0.00 | 74 | 1010.6 |
| 20260506211551 | 73 | 150 | 2.6 | 5.2 | 0.00 | 0.00 | 0.00 | 76 | 1010.4 |
| 20260506211048 | 73 | 137 | 7.0 | 8.7 | 0.00 | 0.00 | 0.00 | 74 | 1010.3 |
| 20260506210545 | 74 | 218 | 4.3 | 7.0 | 0.00 | 0.00 | 0.00 | 74 | 1010.6 |
| 20260506210041 | 74 | 159 | 4.3 | 8.7 | 0.00 | 0.00 | 0.00 | 75 | 1010.4 |
| 20260506205538 | 74 | 190 | 2.6 | 4.3 | 0.00 | 0.00 | 0.00 | 75 | 1010.4 |
| 20260506205033 | 73 | 212 | 7.0 | 13.9 | 0.00 | 0.00 | 0.00 | 76 | 1010.5 |
| 20260506204532 | 75 | 191 | 4.3 | 6.1 | 0.00 | 0.00 | 0.00 | 74 | 1010.5 |
| 20260506204028 | 75 | 197 | 1.7 | 4.3 | 0.00 | 0.00 | 0.00 | 75 | 1010.3 |
| 20260506203527 | 75 | 136 | 8.7 | 12.2 | 0.00 | 0.00 | 0.00 | 74 | 1010.6 |
| 20260506203023 | 74 | 155 | 7.0 | 11.3 | 0.00 | 0.00 | 0.00 | 75 | 1010.2 |
| 20260506202520 | 74 | 211 | 3.5 | 4.3 | 0.00 | 0.00 | 0.00 | 76 | 1010.3 |
| 20260506202016 | 76 | 192 | 2.6 | 4.3 | 0.00 | 0.00 | 0.00 | 74 | 1010.3 |
| 20260506201514 | 75 | 196 | 3.5 | 6.1 | 0.00 | 0.00 | 0.00 | 77 | 1010.3 |
| 20260506201011 | 73 | 167 | 4.3 | 6.1 | 0.00 | 0.00 | 0.00 | 80 | 1010.4 |
| 20260506200507 | 73 | 192 | 2.6 | 2.6 | 0.00 | 0.00 | 0.00 | 81 | 1010.7 |
| 20260506200004 | 73 | 191 | 4.3 | 6.1 | 0.00 | 0.00 | 0.00 | 81 | 1010.8 |
| 20260506195501 | 73 | 179 | 6.1 | 7.0 | 0.00 | 0.00 | 0.00 | 81 | 1010.8 |
| 20260506194956 | 74 | 207 | 1.7 | 1.7 | 0.00 | 0.00 | 0.00 | 81 | 1010.5 |
| 20260506194454 | 75 | 188 | 5.2 | 7.8 | 0.00 | 0.00 | 0.00 | 78 | 1010.5 |
| 20260506193951 | 79 | 203 | 3.5 | 4.3 | 0.00 | 0.00 | 0.00 | 76 | 1010.4 |
| 20260506193448 | 81 | 208 | 2.6 | 2.6 | 0.00 | 0.00 | 0.00 | 75 | 1010.2 |
| 20260506192945 | 81 | 198 | 0.9 | 0.9 | 0.00 | 0.00 | 0.00 | 74 | 1010.2 |
| 20260506192442 | 81 | 229 | 1.7 | 1.7 | 0.00 | 0.00 | 0.00 | 74 | 1009.9 |
| 20260506191938 | 81 | 214 | 0.9 | 0.9 | 0.00 | 0.00 | 0.00 | 74 | 1010.2 |
| 20260506191435 | 82 | 221 | 0.9 | 0.9 | 0.00 | 0.00 | 0.00 | 74 | 1010.1 |
| 20260506190931 | 82 | 234 | 0.9 | 0.9 | 0.00 | 0.00 | 0.00 | 73 | 1010.2 |
| 20260506190428 | 82 | 217 | 0.0 | 0.9 | 0.00 | 0.00 | 0.00 | 74 | 1010.4 |
| 20260506185925 | 82 | 214 | 0.0 | 0.0 | 0.00 | 0.00 | 0.00 | 73 | 1010.4 |
| 20260506185422 | 82 | 219 | 0.9 | 0.9 | 0.00 | 0.00 | 0.00 | 71 | 1010.2 |
| 20260506184919 | 83 | 232 | 1.7 | 1.7 | 0.00 | 0.00 | 0.00 | 71 | 1010.5 |
| 20260506184416 | 83 | 222 | 0.9 | 0.9 | 0.00 | 0.00 | 0.00 | 71 | 1010.5 |
| 20260506183914 | 83 | 195 | 0.9 | 0.9 | 0.00 | 0.00 | 0.00 | 71 | 1010.5 |
| 20260506183409 | 83 | 217 | 1.7 | 1.7 | 0.00 | 0.00 | 0.00 | 71 | 1010.4 |
| 20260506182906 | 83 | 215 | 0.9 | 2.6 | 0.00 | 0.00 | 0.00 | 71 | 1010.5 |
| 20260506182403 | 83 | 204 | 2.6 | 4.3 | 0.00 | 0.00 | 0.00 | 70 | 1010.3 |
| 20260506181900 | 84 | 230 | 0.9 | 1.7 | 0.00 | 0.00 | 0.00 | 71 | 1010.5 |
| 20260506181358 | 84 | 218 | 0.9 | 0.9 | 0.00 | 0.00 | 0.00 | 71 | 1010.8 |
| 20260506180855 | 84 | 193 | 0.9 | 1.7 | 0.00 | 0.00 | 0.00 | 71 | 1010.7 |
| 20260506180351 | 83 | 202 | 0.9 | 0.9 | 0.00 | 0.00 | 0.00 | 70 | 1010.8 |
| 20260506175848 | 84 | 220 | 0.9 | 0.9 | 0.00 | 0.00 | 0.00 | 72 | 1010.6 |
| 20260506175345 | 83 | 196 | 0.9 | 0.9 | 0.00 | 0.00 | 0.00 | 70 | 1010.8 |
| 20260506174842 | 82 | 218 | 0.9 | 0.9 | 0.00 | 0.00 | 0.00 | 73 | 1010.7 |
| 20260506174339 | 80 | 203 | 0.9 | 1.7 | 0.00 | 0.00 | 0.00 | 75 | 1011.2 |
| 20260506173837 | 80 | 213 | 0.9 | 0.9 | 0.00 | 0.00 | 0.00 | 75 | 1010.7 |
| 20260506173333 | 78 | 202 | 3.5 | 4.3 | 0.00 | 0.00 | 0.00 | 76 | 1010.9 |
| 20260506172830 | 77 | 200 | 0.9 | 0.9 | 0.00 | 0.00 | 0.00 | 78 | 1011.2 |
| 20260506172327 | 76 | 193 | 0.9 | 0.9 | 0.00 | 0.00 | 0.00 | 79 | 1011.2 |
| 20260506171825 | 74 | 221 | 3.5 | 4.3 | 0.00 | 0.00 | 0.00 | 80 | 1011.3 |
| 20260506171321 | 74 | 195 | 0.9 | 1.7 | 0.00 | 0.00 | 0.00 | 82 | 1011.2 |
| 20260506170819 | 73 | 233 | 0.9 | 1.7 | 0.00 | 0.00 | 0.00 | 83 | 1011.3 |
| 20260506170315 | 72 | 208 | 0.9 | 0.9 | 0.00 | 0.00 | 0.00 | 84 | 1011.4 |
| 20260506165814 | 72 | 206 | 1.7 | 1.7 | 0.00 | 0.00 | 0.00 | 84 | 1011.4 |
| 20260506165311 | 71 | 194 | 2.6 | 4.3 | 0.00 | 0.00 | 0.00 | 85 | 1011.3 |
| 20260506164807 | 71 | 204 | 2.6 | 2.6 | 0.00 | 0.00 | 0.00 | 85 | 1011.5 |
| 20260506164304 | 71 | 213 | 4.3 | 7.0 | 0.00 | 0.00 | 0.00 | 85 | 1011.3 |
| 20260506163801 | 71 | 191 | 2.6 | 4.3 | 0.00 | 0.00 | 0.00 | 85 | 1011.3 |
| 20260506163256 | 71 | 175 | 2.6 | 4.3 | 0.00 | 0.00 | 0.00 | 86 | 1011.3 |
| 20260506162752 | 73 | 216 | 5.2 | 6.1 | 0.00 | 0.00 | 0.00 | 85 | 1011.4 |
| 20260506162250 | 77 | 196 | 1.7 | 2.6 | 0.00 | 0.00 | 0.00 | 86 | 1011.3 |
| 20260506161747 | 78 | 223 | 1.7 | 1.7 | 0.00 | 0.00 | 0.00 | 85 | 1011.1 |
| 20260506161245 | 78 | 217 | 2.6 | 4.3 | 0.00 | 0.00 | 0.00 | 85 | 1011.1 |
| 20260506160742 | 78 | 209 | 1.7 | 1.7 | 0.00 | 0.00 | 0.00 | 85 | 1011.2 |
| 20260506160238 | 78 | 189 | 0.0 | 0.9 | 0.00 | 0.00 | 0.00 | 85 | 1011.1 |
| 20260506155737 | 78 | 213 | 0.9 | 0.9 | 0.00 | 0.00 | 0.00 | 85 | 1011.2 |
| 20260506155233 | 77 | 198 | 0.9 | 0.9 | 0.00 | 0.00 | 0.00 | 86 | 1011.2 |
| 20260506153341 | 77 | 240 | 0.0 | 0.0 | 0.00 | 0.00 | 0.00 | 88 | 1011.2 |
| 20260506152838 | 77 | 241 | 0.0 | 0.0 | 0.00 | 0.00 | 0.00 | 89 | 1011.1 |
| 20260506152335 | 76 | 241 | 0.0 | 0.0 | 0.00 | 0.00 | 0.00 | 89 | 1010.6 |
| 20260506151834 | 76 | 241 | 0.9 | 0.9 | 0.00 | 0.00 | 0.00 | 89 | 1010.5 |
| 20260506151330 | 77 | 241 | 0.0 | 0.9 | 0.00 | 0.00 | 0.00 | 89 | 1010.3 |
| 20260506150827 | 76 | 242 | 0.0 | 0.0 | 0.00 | 0.00 | 0.00 | 91 | 1010.6 |
| 20260506150324 | 76 | 233 | 0.0 | 0.0 | 0.00 | 0.00 | 0.00 | 91 | 1010.0 |
| 20260506145821 | 76 | 233 | 0.9 | 0.9 | 0.00 | 0.00 | 0.00 | 91 | 1010.3 |
| 20260506145317 | 75 | 235 | 0.9 | 0.9 | 0.00 | 0.00 | 0.00 | 91 | 1010.3 |
| 20260506144815 | 75 | 223 | 0.0 | 0.9 | 0.00 | 0.00 | 0.00 | 92 | 1010.2 |
| 20260506144311 | 75 | 217 | 0.0 | 0.0 | 0.00 | 0.00 | 0.00 | 92 | 1010.1 |
| 20260506143810 | 75 | 217 | 0.0 | 0.9 | 0.00 | 0.00 | 0.00 | 92 | 1010.0 |
| 20260506143306 | 75 | 217 | 0.9 | 0.9 | 0.00 | 0.00 | 0.00 | 93 | 1010.1 |
| 20260506142804 | 75 | 212 | 0.0 | 0.0 | 0.00 | 0.00 | 0.00 | 93 | 1010.3 |
| 20260506142305 | 75 | 212 | 0.9 | 0.9 | 0.00 | 0.00 | 0.00 | 93 | 1010.3 |
| 20260506141800 | 75 | 236 | 0.0 | 0.0 | 0.00 | 0.00 | 0.00 | 93 | 1010.2 |
| 20260506141258 | 74 | 229 | 0.0 | 0.0 | 0.00 | 0.00 | 0.00 | 94 | 1010.1 |
| 20260506140755 | 74 | 227 | 1.7 | 1.7 | 0.00 | 0.00 | 0.00 | 94 | 1010.1 |
| 20260506140252 | 74 | 210 | 0.9 | 0.9 | 0.00 | 0.00 | 0.00 | 94 | 1010.1 |
| 20260506135749 | 74 | 242 | 0.9 | 0.9 | 0.00 | 0.00 | 0.00 | 94 | 1009.7 |
| 20260506135245 | 74 | 268 | 0.9 | 2.6 | 0.00 | 0.00 | 0.00 | 94 | 1009.8 |
| 20260506134742 | 74 | 236 | 0.0 | 0.0 | 0.00 | 0.00 | 0.00 | 94 | 1009.2 |
| 20260506134239 | 74 | 232 | 0.0 | 0.0 | 0.00 | 0.00 | 0.00 | 94 | 1009.3 |
| 20260506133736 | 74 | 230 | 0.9 | 0.9 | 0.00 | 0.00 | 0.00 | 94 | 1009.1 |
| 20260506133232 | 74 | 225 | 0.0 | 0.9 | 0.00 | 0.00 | 0.00 | 94 | 1009.0 |
| 20260506132729 | 74 | 240 | 1.7 | 2.6 | 0.00 | 0.00 | 0.00 | 94 | 1008.9 |
| 20260506132227 | 74 | 238 | 0.9 | 0.9 | 0.00 | 0.00 | 0.00 | 94 | 1008.9 |
| 20260506131725 | 74 | 238 | 0.0 | 0.9 | 0.00 | 0.00 | 0.00 | 94 | 1009.0 |
| 20260506131220 | 74 | 224 | 0.0 | 0.9 | 0.00 | 0.00 | 0.00 | 94 | 1008.7 |
| 20260506130717 | 74 | 234 | 1.7 | 1.7 | 0.00 | 0.00 | 0.00 | 94 | 1008.9 |
| 20260506130214 | 74 | 237 | 0.0 | 0.9 | 0.00 | 0.00 | 0.00 | 94 | 1008.8 |
| 20260506125712 | 74 | 232 | 0.9 | 0.9 | 0.00 | 0.00 | 0.00 | 93 | 1008.9 |
| 20260506125210 | 75 | 237 | 0.9 | 1.7 | 0.00 | 0.00 | 0.00 | 93 | 1008.6 |
| 20260506124708 | 75 | 214 | 0.0 | 0.9 | 0.00 | 0.00 | 0.00 | 93 | 1008.6 |
| 20260506124206 | 74 | 209 | 0.0 | 0.9 | 0.00 | 0.00 | 0.00 | 94 | 1008.8 |
| 20260506123703 | 74 | 209 | 0.9 | 0.9 | 0.00 | 0.00 | 0.00 | 95 | 1008.5 |
| 20260506123202 | 73 | 214 | 0.0 | 0.9 | 0.00 | 0.00 | 0.00 | 96 | 1008.5 |
| 20260506122658 | 73 | 229 | 0.9 | 0.9 | 0.00 | 0.00 | 0.00 | 96 | 1008.5 |
| 20260506122155 | 73 | 226 | 0.0 | 0.9 | 0.00 | 0.00 | 0.00 | 96 | 1008.8 |
| 20260506121653 | 73 | 226 | 0.9 | 0.9 | 0.00 | 0.00 | 0.00 | 96 | 1008.8 |
| 20260506121149 | 73 | 226 | 0.0 | 0.0 | 0.00 | 0.00 | 0.00 | 96 | 1008.6 |
| 20260506120647 | 73 | 226 | 0.0 | 0.0 | 0.00 | 0.00 | 0.00 | 96 | 1008.6 |
| 20260506120144 | 73 | 226 | 0.0 | 0.0 | 0.00 | 0.00 | 0.00 | 96 | 1008.6 |
| 20260506115643 | 73 | 226 | 0.0 | 0.0 | 0.00 | 0.00 | 0.00 | 96 | 1008.7 |
| 20260506115140 | 73 | 226 | 0.0 | 0.0 | 0.00 | 0.00 | 0.00 | 96 | 1008.6 |
| 20260506114637 | 73 | 226 | 0.0 | 0.0 | 0.00 | 0.00 | 0.00 | 96 | 1008.5 |
| 20260506114135 | 73 | 226 | 0.0 | 0.0 | 0.00 | 0.00 | 0.00 | 96 | 1008.4 |
| 20260506113634 | 73 | 226 | 0.0 | 0.0 | 0.00 | 0.00 | 0.00 | 96 | 1008.5 |
| 20260506113130 | 73 | 226 | 0.0 | 0.0 | 0.00 | 0.00 | 0.00 | 96 | 1008.5 |
| 20260506112626 | 73 | 226 | 0.0 | 0.0 | 0.00 | 0.00 | 0.00 | 96 | 1008.6 |
| 20260506112124 | 73 | 226 | 0.0 | 0.0 | 0.00 | 0.00 | 0.00 | 96 | 1008.6 |
| 20260506111622 | 73 | 226 | 0.0 | 0.0 | 0.00 | 0.00 | 0.00 | 96 | 1008.4 |
| 20260506111119 | 73 | 226 | 0.0 | 0.0 | 0.00 | 0.00 | 0.00 | 96 | 1008.5 |
| 20260506110617 | 73 | 226 | 0.0 | 0.0 | 0.00 | 0.00 | 0.00 | 96 | 1008.3 |
| 20260506110114 | 73 | 226 | 0.0 | 0.0 | 0.00 | 0.00 | 0.00 | 96 | 1008.4 |
| 20260506105610 | 73 | 226 | 0.0 | 0.0 | 0.00 | 0.00 | 0.00 | 96 | 1008.6 |
| 20260506105107 | 73 | 226 | 0.0 | 0.0 | 0.00 | 0.00 | 0.00 | 96 | 1008.5 |
| 20260506104606 | 73 | 226 | 0.0 | 0.0 | 0.00 | 0.00 | 0.00 | 96 | 1008.5 |
| 20260506104103 | 73 | 227 | 0.0 | 0.9 | 0.00 | 0.00 | 0.00 | 96 | 1008.5 |
| 20260506103600 | 73 | 226 | 0.0 | 0.0 | 0.00 | 0.00 | 0.00 | 96 | 1008.4 |
| 20260506103056 | 73 | 226 | 0.9 | 0.9 | 0.00 | 0.00 | 0.00 | 96 | 1008.4 |
| 20260506102555 | 73 | 227 | 0.9 | 0.9 | 0.00 | 0.00 | 0.00 | 96 | 1008.5 |
| 20260506102052 | 73 | 227 | 0.9 | 0.9 | 0.00 | 0.00 | 0.00 | 95 | 1008.3 |
| 20260506101548 | 73 | 222 | 0.9 | 0.9 | 0.00 | 0.00 | 0.00 | 95 | 1008.5 |
| 20260506101046 | 74 | 216 | 0.9 | 0.9 | 0.00 | 0.00 | 0.00 | 94 | 1008.3 |
| 20260506100544 | 74 | 202 | 0.9 | 0.9 | 0.00 | 0.00 | 0.00 | 94 | 1008.5 |
| 20260506100042 | 74 | 200 | 0.9 | 1.7 | 0.00 | 0.00 | 0.00 | 94 | 1008.2 |
| 20260506095540 | 74 | 224 | 0.9 | 0.9 | 0.00 | 0.00 | 0.00 | 93 | 1008.0 |
| 20260506095036 | 74 | 202 | 0.9 | 0.9 | 0.00 | 0.00 | 0.00 | 93 | 1007.9 |
| 20260506094534 | 74 | 204 | 0.0 | 0.0 | 0.00 | 0.00 | 0.00 | 93 | 1008.3 |
| 20260506094032 | 74 | 191 | 0.9 | 1.7 | 0.00 | 0.00 | 0.00 | 93 | 1008.2 |
| 20260506093530 | 74 | 180 | 0.9 | 0.9 | 0.00 | 0.00 | 0.00 | 93 | 1008.2 |
| 20260506093027 | 73 | 175 | 1.7 | 1.7 | 0.00 | 0.00 | 0.00 | 94 | 1008.0 |
| 20260506092525 | 73 | 229 | 0.9 | 0.9 | 0.00 | 0.00 | 0.00 | 94 | 1008.2 |
| 20260506092021 | 73 | 211 | 1.7 | 1.7 | 0.00 | 0.00 | 0.00 | 94 | 1008.0 |
| 20260506091520 | 73 | 269 | 2.6 | 4.3 | 0.00 | 0.00 | 0.00 | 95 | 1008.0 |
| 20260506091016 | 73 | 222 | 0.9 | 0.9 | 0.00 | 0.00 | 0.00 | 95 | 1008.2 |
| 20260506090514 | 73 | 182 | 1.7 | 1.7 | 0.00 | 0.00 | 0.00 | 96 | 1008.0 |
| 20260506090010 | 73 | 210 | 0.9 | 0.9 | 0.00 | 0.00 | 0.00 | 96 | 1007.8 |
| 20260506085507 | 73 | 270 | 0.9 | 0.9 | 0.00 | 0.00 | 0.00 | 96 | 1007.7 |
| 20260506085004 | 73 | 221 | 0.9 | 1.7 | 0.00 | 0.00 | 0.00 | 96 | 1008.2 |
| 20260506084501 | 73 | 238 | 2.6 | 2.6 | 0.00 | 0.00 | 0.00 | 96 | 1007.8 |
| 20260506083957 | 73 | 222 | 1.7 | 1.7 | 0.00 | 0.00 | 0.00 | 96 | 1007.9 |
| 20260506083454 | 73 | 224 | 0.0 | 0.0 | 0.00 | 0.00 | 0.00 | 96 | 1008.2 |
| 20260506082951 | 73 | 241 | 0.9 | 0.9 | 0.00 | 0.00 | 0.00 | 96 | 1008.0 |
| 20260506082448 | 73 | 235 | 0.0 | 0.0 | 0.00 | 0.00 | 0.00 | 95 | 1008.0 |
| 20260506081944 | 74 | 272 | 0.9 | 0.9 | 0.00 | 0.00 | 0.00 | 95 | 1007.7 |
| 20260506081443 | 74 | 231 | 0.0 | 0.0 | 0.00 | 0.00 | 0.00 | 95 | 1007.8 |
| 20260506080939 | 74 | 210 | 0.0 | 0.9 | 0.00 | 0.00 | 0.00 | 94 | 1007.7 |
| 20260506080436 | 75 | 244 | 1.7 | 2.6 | 0.00 | 0.00 | 0.00 | 93 | 1007.7 |
| 20260506073420 | 74 | 228 | 0.0 | 0.0 | 0.00 | 0.00 | 0.00 | 93 | 1008.3 |
| 20260506072918 | 74 | 230 | 0.0 | 0.0 | 0.00 | 0.00 | 0.00 | 93 | 1008.7 |
| 20260506072415 | 74 | 200 | 0.9 | 0.9 | 0.00 | 0.00 | 0.00 | 93 | 1008.3 |
| 20260506071912 | 74 | 159 | 2.6 | 2.6 | 0.00 | 0.00 | 0.00 | 93 | 1008.5 |
| 20260506071410 | 74 | 231 | 0.9 | 0.9 | 0.00 | 0.00 | 0.00 | 93 | 1008.4 |
| 20260506070907 | 74 | 89 | 1.7 | 4.3 | 0.00 | 0.00 | 0.00 | 93 | 1008.4 |
| 20260506070404 | 74 | 221 | 1.7 | 1.7 | 0.00 | 0.00 | 0.00 | 93 | 1008.8 |
| 20260506062341 | 75 | 238 | 0.9 | 0.9 | 0.00 | 0.00 | 0.00 | 93 | 1008.4 |
| 20260506061837 | 75 | 221 | 0.9 | 0.9 | 0.00 | 0.00 | 0.00 | 93 | 1008.5 |
| 20260506061333 | 75 | 238 | 0.9 | 0.9 | 0.00 | 0.00 | 0.00 | 93 | 1008.8 |
| 20260506060832 | 75 | 261 | 2.6 | 4.3 | 0.00 | 0.00 | 0.00 | 92 | 1008.6 |
| 20260506060330 | 75 | 77 | 1.7 | 1.7 | 0.00 | 0.00 | 0.00 | 92 | 1008.5 |
| 20260506051301 | 76 | 237 | 0.9 | 0.9 | 0.00 | 0.00 | 0.00 | 91 | 1008.7 |
| 20260506050759 | 76 | 208 | 0.9 | 0.9 | 0.00 | 0.00 | 0.00 | 90 | 1008.6 |
| 20260506050256 | 77 | 234 | 1.7 | 1.7 | 0.00 | 0.00 | 0.00 | 88 | 1008.5 |
| 20260506044747 | 77 | 205 | 0.9 | 1.7 | 0.00 | 0.00 | 0.00 | 88 | 1008.6 |
| 20260506044244 | 77 | 212 | 0.9 | 1.7 | 0.00 | 0.00 | 0.00 | 88 | 1008.6 |
| 20260506043741 | 76 | 217 | 0.9 | 1.7 | 0.00 | 0.00 | 0.00 | 91 | 1008.6 |
| 20260506043239 | 76 | 172 | 0.9 | 0.9 | 0.00 | 0.00 | 0.00 | 91 | 1008.6 |
| 20260506042737 | 76 | 179 | 1.7 | 2.6 | 0.00 | 0.00 | 0.00 | 91 | 1008.6 |
| 20260506042236 | 76 | 251 | 1.7 | 1.7 | 0.00 | 0.00 | 0.00 | 91 | 1008.4 |
| 20260506041734 | 76 | 234 | 0.0 | 0.0 | 0.00 | 0.00 | 0.00 | 91 | 1008.3 |
| 20260506041231 | 76 | 230 | 0.9 | 0.9 | 0.00 | 0.00 | 0.00 | 91 | 1008.5 |
| 20260506040728 | 76 | 250 | 0.9 | 0.9 | 0.00 | 0.00 | 0.00 | 91 | 1008.3 |
| 20260506040225 | 76 | 225 | 0.9 | 1.7 | 0.00 | 0.00 | 0.00 | 91 | 1008.4 |
| 20260506035721 | 76 | 230 | 0.9 | 1.7 | 0.00 | 0.00 | 0.00 | 91 | 1008.3 |
| 20260506035219 | 76 | 241 | 0.9 | 0.9 | 0.00 | 0.00 | 0.00 | 91 | 1008.4 |
| 20260506034715 | 76 | 250 | 0.9 | 1.7 | 0.00 | 0.00 | 0.00 | 91 | 1007.7 |
| 20260506034213 | 76 | 245 | 0.0 | 0.9 | 0.00 | 0.00 | 0.00 | 91 | 1008.2 |
| 20260506033710 | 76 | 232 | 0.9 | 0.9 | 0.00 | 0.00 | 0.00 | 91 | 1008.2 |
| 20260506033206 | 75 | 236 | 0.0 | 0.9 | 0.00 | 0.00 | 0.00 | 91 | 1007.8 |
| 20260506032703 | 75 | 244 | 0.0 | 0.9 | 0.00 | 0.00 | 0.00 | 91 | 1008.0 |
| 20260506032201 | 75 | 243 | 0.0 | 0.9 | 0.00 | 0.00 | 0.00 | 91 | 1007.9 |
| 20260506031657 | 75 | 238 | 0.0 | 0.0 | 0.00 | 0.00 | 0.00 | 91 | 1007.8 |
| 20260506031155 | 75 | 238 | 0.0 | 0.0 | 0.00 | 0.00 | 0.00 | 90 | 1007.5 |
| 20260506030653 | 75 | 239 | 0.0 | 0.0 | 0.00 | 0.00 | 0.00 | 89 | 1007.5 |
| 20260506030149 | 76 | 239 | 0.9 | 0.9 | 0.00 | 0.00 | 0.00 | 89 | 1007.5 |
| 20260506025646 | 76 | 229 | 0.0 | 0.0 | 0.00 | 0.00 | 0.00 | 87 | 1007.2 |
| 20260506025142 | 77 | 222 | 0.0 | 0.0 | 0.00 | 0.00 | 0.00 | 86 | 1007.2 |
| 20260506024640 | 78 | 209 | 0.0 | 0.9 | 0.00 | 0.00 | 0.00 | 85 | 1007.0 |
| 20260506024136 | 78 | 204 | 0.0 | 0.9 | 0.00 | 0.00 | 0.00 | 84 | 1007.1 |
| 20260506023633 | 78 | 207 | 0.0 | 0.9 | 0.00 | 0.00 | 0.00 | 85 | 1007.0 |
| 20260506023130 | 77 | 208 | 0.0 | 0.9 | 0.00 | 0.00 | 0.00 | 85 | 1007.2 |
| 20260506022627 | 75 | 209 | 0.9 | 0.9 | 0.00 | 0.00 | 0.00 | 89 | 1007.0 |
| 20260506022125 | 75 | 210 | 0.0 | 0.0 | 0.00 | 0.00 | 0.00 | 90 | 1006.9 |
| 20260506021622 | 75 | 210 | 0.0 | 0.0 | 0.00 | 0.00 | 0.00 | 90 | 1006.9 |
| 20260506021119 | 75 | 210 | 0.0 | 0.0 | 0.00 | 0.00 | 0.00 | 89 | 1006.8 |
| 20260506020616 | 75 | 210 | 0.0 | 0.0 | 0.00 | 0.00 | 0.00 | 89 | 1006.6 |
| 20260506020114 | 75 | 210 | 0.0 | 0.0 | 0.00 | 0.00 | 0.00 | 88 | 1006.5 |
| 20260506015611 | 76 | 210 | 0.0 | 0.0 | 0.00 | 0.00 | 0.00 | 88 | 1006.3 |
| 20260506015108 | 76 | 210 | 0.0 | 0.0 | 0.00 | 0.00 | 0.00 | 87 | 1006.5 |
| 20260506014606 | 77 | 210 | 0.0 | 0.0 | 0.00 | 0.00 | 0.00 | 86 | 1006.2 |
| 20260506014101 | 77 | 210 | 0.0 | 0.0 | 0.00 | 0.00 | 0.00 | 86 | 1006.3 |
| 20260506013600 | 77 | 210 | 0.0 | 0.0 | 0.00 | 0.00 | 0.00 | 85 | 1006.1 |
| 20260506013056 | 78 | 210 | 0.0 | 0.0 | 0.00 | 0.00 | 0.00 | 84 | 1005.9 |
| 20260506012552 | 78 | 210 | 0.0 | 0.9 | 0.00 | 0.00 | 0.00 | 83 | 1006.0 |
| 20260506012049 | 79 | 210 | 0.9 | 0.9 | 0.00 | 0.00 | 0.00 | 82 | 1006.1 |
| 20260506011547 | 80 | 209 | 0.0 | 0.9 | 0.00 | 0.00 | 0.00 | 81 | 1006.0 |
| 20260506011042 | 80 | 211 | 0.9 | 0.9 | 0.00 | 0.00 | 0.00 | 80 | 1006.0 |
| 20260506010537 | 81 | 216 | 0.0 | 0.9 | 0.00 | 0.00 | 0.00 | 78 | 1006.1 |
| 20260506010033 | 81 | 215 | 0.0 | 0.9 | 0.00 | 0.00 | 0.00 | 77 | 1006.1 |
| 20260506005530 | 82 | 220 | 0.0 | 0.9 | 0.00 | 0.00 | 0.00 | 76 | 1006.1 |
| 20260506005026 | 80 | 234 | 0.0 | 0.0 | 0.00 | 0.00 | 0.00 | 78 | 1006.1 |
| 20260506004523 | 81 | 238 | 0.0 | 0.0 | 0.00 | 0.00 | 0.00 | 78 | 1006.1 |
| 20260506004020 | 81 | 237 | 0.9 | 0.9 | 0.00 | 0.00 | 0.00 | 78 | 1005.9 |
| 20260506003516 | 81 | 226 | 0.0 | 0.0 | 0.00 | 0.00 | 0.00 | 77 | 1005.9 |
| 20260506003012 | 81 | 225 | 0.0 | 0.9 | 0.00 | 0.00 | 0.00 | 77 | 1005.8 |